When you browse on this site, cookies collect data to enhance your experience and personalize the content and advertising you see.
Visit our Privacy Policy to learn more. By continuing to use the site, you agree to this use of cookies and data.
  • In Hungary
  • List of Countries
  • For 7 days
  • Water Temperature
  • Satellite Maps
  • Weather Map
  • News
  • Weather Widgets
  • user-avatar
    Login

    Hourly Weather Czastkow

    Today, 22 May, Wednesday

    Time Temperature Precipitation Wind Pressure Humidity
    00:00 +13°C° 0 mm 2 mps 731 mmHg 97%
    01:00 +14°C° 0 mm 2 mps 731 mmHg 97%
    02:00 +13°C° 0 mm 2 mps 731 mmHg 97%
    03:00 +13°C° 0 mm 2 mps 731 mmHg 97%
    04:00 +13°C° 0 mm 2 mps 731 mmHg 97%
    05:00 +14°C° 0.1 mm 2 mps 731 mmHg 96%
    06:00 +14°C° 0.1 mm 2 mps 731 mmHg 94%
    07:00 +14°C° 0.1 mm 2 mps 732 mmHg 93%
    08:00 +15°C° 0.2 mm 2 mps 732 mmHg 90%
    09:00 +14°C° 0.2 mm 3 mps 732 mmHg 88%
    10:00 +16°C° 0.2 mm 3 mps 732 mmHg 86%
    11:00 +17°C° 0.4 mm 2 mps 732 mmHg 84%
    12:00 +17°C° 0.4 mm 2 mps 733 mmHg 81%
    13:00 +18°C° 0.4 mm 2 mps 733 mmHg 79%
    14:00 +18°C° 0.5 mm 2 mps 733 mmHg 78%
    15:00 +18°C° 0.5 mm 2 mps 732 mmHg 77%
    16:00 +20°C° 0.5 mm 1 mps 732 mmHg 76%
    17:00 +19°C° 0.2 mm 1 mps 733 mmHg 80%
    18:00 +18°C° 0.2 mm 1 mps 733 mmHg 84%
    19:00 +16°C° 0.2 mm 1 mps 733 mmHg 88%
    20:00 +15°C° 0 mm 1 mps 733 mmHg 90%
    21:00 +14°C° 0 mm 1 mps 734 mmHg 92%
    22:00 +13°C° 0 mm 1 mps 734 mmHg 94%
    23:00 +13°C° 0.2 mm 1 mps 734 mmHg 95%

    Tomorrow, 23 May, Thursday

    Time Temperature Precipitation Wind Pressure Humidity
    00:00 +13°C° 0.2 mm 1 mps 735 mmHg 96%
    01:00 +13°C° 0.2 mm 2 mps 735 mmHg 96%
    02:00 +13°C° 0.2 mm 2 mps 735 mmHg 97%
    03:00 +13°C° 0.2 mm 2 mps 735 mmHg 97%
    04:00 +12°C° 0.2 mm 3 mps 735 mmHg 98%
    05:00 +13°C° 0.4 mm 3 mps 736 mmHg 97%
    06:00 +13°C° 0.4 mm 3 mps 736 mmHg 95%
    07:00 +14°C° 0.4 mm 3 mps 736 mmHg 94%
    08:00 +16°C° 0.1 mm 3 mps 737 mmHg 92%
    09:00 +15°C° 0.1 mm 4 mps 737 mmHg 90%
    10:00 +17°C° 0.1 mm 4 mps 737 mmHg 87%
    11:00 +16°C° 0.9 mm 5 mps 738 mmHg 87%
    12:00 +17°C° 0.9 mm 5 mps 738 mmHg 86%
    13:00 +17°C° 0.9 mm 6 mps 738 mmHg 85%
    14:00 +16°C° 0.6 mm 6 mps 738 mmHg 87%
    15:00 +15°C° 0.6 mm 7 mps 738 mmHg 89%
    16:00 +15°C° 0.6 mm 7 mps 738 mmHg 91%
    17:00 +14°C° 0.3 mm 6 mps 738 mmHg 92%
    18:00 +14°C° 0.3 mm 6 mps 739 mmHg 93%
    19:00 +14°C° 0.3 mm 5 mps 739 mmHg 94%
    20:00 +13°C° 0.3 mm 5 mps 739 mmHg 94%
    21:00 +13°C° 0.3 mm 5 mps 739 mmHg 94%
    22:00 +13°C° 0.3 mm 5 mps 740 mmHg 95%
    23:00 +13°C° 0.5 mm 5 mps 740 mmHg 94%

    Day after tomorrow, 24 May, Friday

    Time Temperature Precipitation Wind Pressure Humidity
    00:00 +12°C° 0.5 mm 5 mps 740 mmHg 94%
    01:00 +12°C° 0.5 mm 5 mps 740 mmHg 94%
    02:00 +11°C° 0.3 mm 4 mps 740 mmHg 93%
    03:00 +11°C° 0.3 mm 4 mps 740 mmHg 93%
    04:00 +10°C° 0.3 mm 4 mps 740 mmHg 92%
    05:00 +11°C° 0.1 mm 4 mps 740 mmHg 88%
    06:00 +11°C° 0.1 mm 4 mps 740 mmHg 84%
    07:00 +11°C° 0.1 mm 4 mps 740 mmHg 79%
    08:00 +13°C° 0 mm 4 mps 740 mmHg 72%
    09:00 +15°C° 0 mm 4 mps 740 mmHg 64%
    10:00 +17°C° 0 mm 4 mps 740 mmHg 56%
    11:00 +18°C° 0 mm 4 mps 740 mmHg 54%
    12:00 +19°C° 0 mm 4 mps 740 mmHg 53%
    13:00 +20°C° 0 mm 4 mps 740 mmHg 51%
    14:00 +20°C° 0 mm 4 mps 739 mmHg 51%
    15:00 +19°C° 0 mm 4 mps 739 mmHg 52%
    16:00 +19°C° 0 mm 4 mps 739 mmHg 53%
    17:00 +18°C° 0 mm 3 mps 739 mmHg 60%
    18:00 +17°C° 0 mm 2 mps 738 mmHg 68%
    19:00 +16°C° 0 mm 2 mps 738 mmHg 75%
    20:00 +15°C° 0 mm 2 mps 738 mmHg 80%
    21:00 +14°C° 0 mm 1 mps 738 mmHg 84%
    22:00 +13°C° 0 mm 1 mps 739 mmHg 88%
    23:00 +13°C° 0 mm 1 mps 739 mmHg 89%

    25 May, Saturday

    Time Temperature Precipitation Wind Pressure Humidity
    00:00 +12°C° 0 mm 1 mps 738 mmHg 91%
    01:00 +12°C° 0 mm 1 mps 738 mmHg 92%
    02:00 +12°C° 0 mm 2 mps 738 mmHg 92%
    03:00 +12°C° 0 mm 2 mps 738 mmHg 92%
    04:00 +12°C° 0 mm 2 mps 738 mmHg 91%
    05:00 +13°C° 0 mm 2 mps 738 mmHg 85%
    06:00 +14°C° 0 mm 3 mps 738 mmHg 79%
    07:00 +17°C° 0 mm 3 mps 738 mmHg 72%
    08:00 +18°C° 0.7 mm 4 mps 738 mmHg 72%
    09:00 +19°C° 0.7 mm 4 mps 738 mmHg 72%
    10:00 +19°C° 0.7 mm 5 mps 738 mmHg 72%
    11:00 +20°C° 0.6 mm 5 mps 738 mmHg 69%
    12:00 +20°C° 0.6 mm 5 mps 738 mmHg 66%
    13:00 +20°C° 0.6 mm 5 mps 738 mmHg 63%
    14:00 +20°C° 0.2 mm 5 mps 738 mmHg 61%
    15:00 +20°C° 0.2 mm 5 mps 738 mmHg 59%
    16:00 +20°C° 0.2 mm 5 mps 738 mmHg 56%
    17:00 +19°C° 0 mm 4 mps 738 mmHg 63%
    18:00 +17°C° 0 mm 3 mps 738 mmHg 70%
    19:00 +14°C° 0 mm 3 mps 738 mmHg 77%
    20:00 +14°C° 0 mm 2 mps 738 mmHg 82%
    21:00 +12°C° 0 mm 2 mps 738 mmHg 87%
    22:00 +11°C° 0 mm 1 mps 739 mmHg 92%
    23:00 +11°C° 0 mm 1 mps 739 mmHg 93%

    26 May, Sunday

    Time Temperature Precipitation Wind Pressure Humidity
    00:00 +9°C° 0 mm 2 mps 739 mmHg 93%
    01:00 +9°C° 0 mm 2 mps 739 mmHg 93%
    02:00 +9°C° 0 mm 2 mps 738 mmHg 93%
    03:00 +9°C° 0 mm 2 mps 738 mmHg 93%
    04:00 +9°C° 0 mm 2 mps 738 mmHg 93%
    05:00 +10°C° 0 mm 3 mps 738 mmHg 85%
    06:00 +12°C° 0 mm 4 mps 738 mmHg 77%
    07:00 +13°C° 0 mm 5 mps 738 mmHg 70%
    08:00 +13°C° 0 mm 5 mps 738 mmHg 69%
    09:00 +14°C° 0 mm 6 mps 738 mmHg 68%
    10:00 +14°C° 0 mm 6 mps 737 mmHg 67%
    11:00 +15°C° 0 mm 6 mps 737 mmHg 62%
    12:00 +16°C° 0 mm 6 mps 737 mmHg 57%
    13:00 +17°C° 0 mm 6 mps 737 mmHg 53%
    14:00 +17°C° 0 mm 6 mps 737 mmHg 55%
    15:00 +17°C° 0 mm 6 mps 737 mmHg 57%
    16:00 +16°C° 0 mm 6 mps 737 mmHg 59%
    17:00 +15°C° 0 mm 6 mps 737 mmHg 65%
    18:00 +14°C° 0 mm 5 mps 737 mmHg 71%
    19:00 +13°C° 0 mm 4 mps 737 mmHg 77%
    20:00 +12°C° 0 mm 4 mps 737 mmHg 80%
    21:00 +12°C° 0 mm 3 mps 737 mmHg 84%
    22:00 +11°C° 0 mm 3 mps 738 mmHg 87%
    23:00 +11°C° 0 mm 3 mps 738 mmHg 87%

    27 May, Monday

    Time Temperature Precipitation Wind Pressure Humidity
    00:00 +11°C° 0 mm 4 mps 738 mmHg 87%
    01:00 +11°C° 0 mm 4 mps 738 mmHg 87%
    02:00 +11°C° 0 mm 4 mps 738 mmHg 88%
    03:00 +12°C° 0 mm 4 mps 738 mmHg 88%
    04:00 +12°C° 0 mm 4 mps 738 mmHg 89%
    05:00 +12°C° 0.1 mm 4 mps 738 mmHg 87%
    06:00 +13°C° 0.1 mm 4 mps 739 mmHg 86%
    07:00 +14°C° 0.1 mm 4 mps 739 mmHg 84%
    08:00 +15°C° 0 mm 4 mps 739 mmHg 79%
    09:00 +17°C° 0 mm 4 mps 739 mmHg 74%
    10:00 +17°C° 0 mm 5 mps 739 mmHg 69%
    11:00 +19°C° 0.3 mm 5 mps 738 mmHg 67%
    12:00 +20°C° 0.3 mm 5 mps 738 mmHg 65%
    13:00 +22°C° 0.3 mm 5 mps 738 mmHg 63%
    14:00 +21°C° 0.7 mm 4 mps 737 mmHg 70%
    15:00 +20°C° 0.7 mm 4 mps 737 mmHg 76%
    16:00 +19°C° 0.7 mm 3 mps 737 mmHg 83%
    17:00 +19°C° 0.3 mm 3 mps 737 mmHg 84%
    18:00 +18°C° 0.3 mm 3 mps 737 mmHg 86%
    19:00 +18°C° 0.3 mm 3 mps 737 mmHg 88%
    20:00 +17°C° 0 mm 3 mps 737 mmHg 90%
    21:00 +16°C° 0 mm 2 mps 737 mmHg 92%
    22:00 +15°C° 0 mm 2 mps 738 mmHg 94%
    23:00 +15°C° 0 mm 2 mps 738 mmHg 95%
    Show more